Location: Stanford
(52.2833°N, 2.4333°W)
Time: 19:43:16
(UTC+00:00)

Cosmos 158 Rocket - Pass Details

Date: 22 January 2021
Orbit: 698 x 794 km, 74.0° (Epoch: 27 February)

Event Time Altitude Azimuth Distance (km) Brightness Sun altitude
Rises 18:26:43 0° 333° (NNW) 3,259 7.5 -16.1°
Reaches altitude 10° 18:29:05 10° 332° (NNW) 2,340 6.7 -16.4°
Maximum altitude 18:34:25 76° 248° (WSW) 816 4.2 -17.3°
Drops below altitude 10° 18:39:48 10° 163° (SSE) 2,357 6.4 -18.1°
Sets 18:42:11 0° 162° (SSE) 3,284 7.2 -18.4°
